Lid_Strength_Index
0 -0 -0 -0 -1 -0 -0 -0 -0 -1 -0 1 1 1 0 1 0 -0 0 1 1 1 0 1 2 2 2 2 2 3 1 1 2 2 2 0 0 1 -0 -2 -1 -0 0
-0 -0 -0 -0 -0 -0 -0 -0 -1 -0 -0 -0 0 0 0 0 0 0 1 1 1 1 1 1 2 1 1 -0 1 0 0 0 1 2 1 1 -1 -2 -2 -2 -2 -2 -2
0 0 -0 -0 -0 -0 -0 -1 -1 0 -0 -0 -0 1 0 0 -0 -0 -0 0 1 1 0 1 0 0 1 0 -0 1 1 2 1 2 2 -0 -0 -1 -1 -1 -1 -2 -1
0 1 0 0 -0 -0 -1 -1 -1 -1 -0 -0 -0 -0 -0 -0 -0 -0 -0 -0 -0 -0 -0 -0 -0 -0 0 0 0 -0 0 1 0 1 1 1 0 -0 -0 0 1 -0 0
0 1 1 -0 -0 -0 -0 -0 -1 -1 -1 -1 -0 -0 -1 -0 -0 -0 -0 -0 -0 0 -0 -0 -1 2 4 2 -0 -1 -1 0 1 1 1 1 1 1 1 0 1 0 -0
0 1 0 -0 -0 -0 -0 -0 -0 -0 -0 -1 -0 -0 -0 -0 7 5 1 -0 -0 -0 0 -0 -1 1 3 4 5 6 1 -0 0 1 1 1 0 1 0 0 1 1 2
1 0 0 0 0 0 -0 -0 0 -0 -0 -0 -0 -0 -0 -0 7 6 5 -0 -0 -0 -0 -0 -0 -0 -0 -0 5 5 5 5 5 -1 0 0 0 -0 -1 0 0 1 1
1 1 0 0 1 0 0 0 -0 -0 -0 -0 -0 -0 -0 1 8 7 4 -1 -0 -0 -1 -1 -1 -0 -0 -1 -0 -0 -0 -1 -1 -1 -1 -1 -1 -1 -1 -1 -0 -0 -0
1 1 0 0 0 0 0 0 -0 0 0 0 -0 -0 -0 -0 9 9 4 -1 -0 -1 -1 -1 -1 -1 8 8 1 0 -0 -0 9 8 8 9 10 9 5 -1 1 1 2
1 1 0 0 0 0 -0 0 -0 -0 0 -0 -0 -1 2 -0 9 10 6 2 1 2 1 2 8 4 10 9 1 0 1 0 1 2 1 5 8 5 9 2 2 4 4
0 0 0 -0 -0 -0 -0 -0 -0 -0 -0 -0 -0 -0 -1 -0 2 10 10 2 2 3 3 3 4 10 10 10 10 0 1 1 4 3 2 3 3 3 3 4 3 4 5
0 0 0 -0 0 0 -0 0 -0 -0 0 0 0 0 -0 -1 4 9 10 9 5 1 1 1 1 11 11 11 10 9 10 10 4 4 4 4 4 4 3 4 3 3 4
0 0 0 0 0 -0 0 0 1 0 1 1 1 1 1 -0 -0 8 10 10 9 0 -1 3 8 10 11 11 12 11 12 5 4 4 4 3 3 3 3 3 3 3 4
1 1 0 1 1 0 0 0 1 1 1 1 1 1 1 0 -0 0 2 3 8 5 5 1 4 5 6 6 6 7 5 3 4 3 3 3 3 3 4 3 4 4 5
1 1 1 1 1 1 0 0 0 -0 1 1 0 0 1 1 0 3 2 1 1 3 2 0 1 2 2 3 2 2 1 2 2 2 3 2 3 3 4 5 6 6 7
1 1 1 1 1 1 1 1 6 6 6 8 7 3 0 6 8 8 7 7 8 10 3 1 1 0 0 0 0 -0 -1 4 2 3 4 5 7 7 8 9 7 6 6
1 1 1 1 1 1 1 1 2 3 8 9 9 8 8 5 9 9 10 11 12 10 1 0 1 0 0 0 1 2 4 5 5 5 8 8 9 9 8 7 6 6 7
1 5 1 1 1 1 1 1 1 1 2 1 9 8 10 10 10 11 11 10 5 5 0 1 1 1 2 3 6 7 7 8 9 8 9 9 7 8 7 7 7 7 7
1 1 1 1 1 2 1 1 2 2 2 1 1 5 9 11 11 12 12 0 1 1 1 1 2 5 8 7 8 8 8 10 10 8 7 7 7 7 7 7 7 10 8
1 5 4 1 1 1 1 1 2 2 2 2 1 1 2 4 2 1 0 0 1 3 3 6 8 8 8 9 10 10 10 9 8 7 7 8 8 7 7 7 5 5 4
1 1 5 1 1 1 1 1 1 1 1 1 1 1 7 1 1 1 1 1 3 4 6 8 6 6 9 8 7 6 6 7 8 8 8 8 7 7 5 4 4 4 5
1 1 1 2 1 2 1 1 1 1 1 1 1 3 12 0 1 1 3 4 6 5 4 6 7 7 8 7 7 7 8 8 8 8 7 6 5 4 4 4 5 5 5
1 1 1 2 1 4 2 1 1 1 1 1 1 2 2 2 3 4 4 5 5 6 7 7 7 8 8 8 8 9 9 8 6 6 6 5 5 4 4 4 4 4 4
1 1 1 1 1 1 1 2 1 4 1 2 2 2 3 3 4 5 6 6 8 8 9 8 8 8 8 8 8 7 6 6 5 5 4 4 4 5 4 4 4 4 5
1 1 1 1 1 2 1 1 1 2 3 3 3 4 4 5 6 8 8 9 9 8 9 9 9 8 8 8 8 7 12 13 7 10 4 4 4 4 4 4 3 3 4
1 2 1 1 2 2 2 3 3 3 4 5 5 6 7 9 10 10 9 9 9 9 9 9 9 8 8 8 8 12 13 12 8 11 5 3 4 4 3 3 4 3 4